TimeEST,TemperatureF,Dew PointF,Humidity,Sea Level PressureIn,VisibilityMPH,Wind Direction,Wind SpeedMPH,Gust SpeedMPH,PrecipitationIn,Events,Conditions,WindDirDegrees,DateUTC
12:54 AM,19.9,14.0,78,30.28,10.0,ENE,6.9,-,N/A,,Scattered Clouds,60,2014-01-01 05:54:00
1:54 AM,19.9,14.0,78,30.26,10.0,East,8.1,-,N/A,,Clear,80,2014-01-01 06:54:00
2:54 AM,19.9,14.0,78,30.25,10.0,East,11.5,-,N/A,,Clear,80,2014-01-01 07:54:00
3:54 AM,19.9,15.1,81,30.25,10.0,ENE,11.5,-,N/A,,Clear,70,2014-01-01 08:54:00
4:54 AM,19.9,15.1,81,30.23,10.0,ENE,9.2,-,N/A,,Clear,70,2014-01-01 09:54:00
5:54 AM,21.0,16.0,81,30.23,10.0,ENE,10.4,-,N/A,,Clear,70,2014-01-01 10:54:00
6:54 AM,21.0,16.0,81,30.22,10.0,ENE,10.4,-,N/A,,Clear,70,2014-01-01 11:54:00
7:54 AM,21.9,17.1,82,30.22,10.0,ENE,11.5,-,N/A,,Clear,60,2014-01-01 12:54:00
8:54 AM,21.9,17.1,82,30.21,10.0,ENE,12.7,-,N/A,,Clear,70,2014-01-01 13:54:00
9:54 AM,24.1,18.0,77,30.22,10.0,ENE,8.1,-,N/A,,Clear,70,2014-01-01 14:54:00
10:54 AM,26.1,19.9,78,30.22,10.0,ENE,9.2,-,N/A,,Clear,70,2014-01-01 15:54:00
11:54 AM,27.0,21.0,78,30.20,10.0,NE,8.1,-,N/A,,Clear,50,2014-01-01 16:54:00
12:54 PM,28.0,21.0,75,30.17,10.0,ENE,11.5,-,N/A,,Clear,60,2014-01-01 17:54:00
1:52 PM,28.4,21.2,74,30.12,10.0,ENE,8.1,-,N/A,,Mostly Cloudy,60,2014-01-01 18:52:00
1:54 PM,28.9,21.9,75,30.15,10.0,NE,9.2,-,N/A,,Mostly Cloudy,50,2014-01-01 18:54:00
2:04 PM,28.0,21.9,78,30.12,10.0,ENE,9.2,-,N/A,,Scattered Clouds,60,2014-01-01 19:04:00
2:19 PM,28.9,21.9,75,30.13,10.0,ENE,10.4,-,N/A,,Mostly Cloudy,60,2014-01-01 19:19:00
2:54 PM,28.9,21.9,75,30.14,10.0,NE,10.4,-,N/A,,Mostly Cloudy,50,2014-01-01 19:54:00
3:54 PM,28.0,21.9,78,30.14,10.0,NE,10.4,-,N/A,,Overcast,50,2014-01-01 20:54:00
4:54 PM,27.0,21.9,81,30.14,10.0,NE,9.2,-,N/A,,Overcast,50,2014-01-01 21:54:00
5:54 PM,26.1,21.0,81,30.14,10.0,NE,10.4,-,N/A,,Overcast,50,2014-01-01 22:54:00
6:29 PM,25.0,19.9,81,30.11,10.0,NE,10.4,-,N/A,,Overcast,50,2014-01-01 23:29:00
6:40 PM,25.0,19.9,81,30.11,10.0,ENE,11.5,-,N/A,,Overcast,60,2014-01-01 23:40:00
6:54 PM,25.0,19.9,81,30.14,10.0,ENE,13.8,-,N/A,,Overcast,60,2014-01-01 23:54:00
7:02 PM,25.0,19.9,81,30.12,10.0,ENE,13.8,-,N/A,,Overcast,60,2014-01-02 00:02:00
7:54 PM,24.1,19.0,81,30.14,3.0,NE,11.5,-,0.00,Snow,Light Snow,50,2014-01-02 00:54:00
7:59 PM,24.1,19.0,81,30.11,2.0,ENE,11.5,-,0.00,Snow,Light Snow,60,2014-01-02 00:59:00
8:07 PM,23.0,19.9,88,30.11,1.5,ENE,11.5,-,0.00,Snow,Light Snow,60,2014-01-02 01:07:00
8:29 PM,23.0,19.9,88,30.11,1.0,ENE,10.4,-,0.00,Snow,Light Snow,60,2014-01-02 01:29:00
8:54 PM,21.9,19.9,92,30.13,1.0,ENE,10.4,-,0.00,Snow,Light Snow,60,2014-01-02 01:54:00
9:04 PM,21.9,19.9,92,30.10,1.2,ENE,11.5,-,0.01,Snow,Light Snow,60,2014-01-02 02:04:00
9:11 PM,21.9,19.9,92,30.10,1.2,NE,11.5,-,0.01,Snow,Light Snow,50,2014-01-02 02:11:00
9:54 PM,21.9,19.0,89,30.12,1.2,NE,10.4,-,0.01,Snow,Light Snow,50,2014-01-02 02:54:00
10:01 PM,21.0,19.0,92,30.09,1.0,NE,15.0,-,0.01,Snow,Light Snow,50,2014-01-02 03:01:00
10:54 PM,21.0,19.0,92,30.10,1.2,NE,9.2,-,0.02,Snow,Light Snow,40,2014-01-02 03:54:00
11:52 PM,19.4,15.8,86,30.07,2.5,NE,12.7,-,0.01,Snow,Light Snow,40,2014-01-02 04:52:00
11:54 PM,19.0,16.0,88,30.10,2.5,NE,11.5,-,0.01,Snow,Light Snow,50,2014-01-02 04:54:00